Location: Santa Maria di Sala
(45.5070°N, 12.0300°E)
Time: 13:35:03
(UTC+02:00)

Envisat - Pass Details

Date: 19 April 2024
Orbit: 762 x 764 km, 98.3° (Epoch: 26 May)

Event Time Altitude Azimuth Distance (km) Brightness Sun altitude
Rises 03:15:54 0° 30° (NNE) 3,238 7.6 -26.6°
Reaches altitude 10° 03:19:09 10° 52° (NE) 2,306 6.4 -26.3°
Maximum altitude 03:22:12 16° 89° (E) 1,923 5.5 -26.0°
Drops below altitude 10° 03:25:14 10° 126° (SE) 2,294 5.5 -25.7°
Enters shadow 03:26:15 - 135° (SE) 2,551 5.6 -25.6°
